Location: *
(48.8489°N, 2.3218°E)
Time: 23:15:28
(UTC+00:00)

MOS 1 Rocket - Pass Details

Date: 23 August 2019
Orbit: 615 x 829 km, 97.4° (Epoch: 22 September)

Event Time Altitude Azimuth Distance (km) Brightness Sun altitude
Rises 21:12:35 0° 17° (NNE) 3,344 7.2 -20.2°
Reaches altitude 10° 21:15:01 10° 23° (NNE) 2,425 6.4 -20.5°
Maximum altitude 21:20:14 48° 97° (E) 1,082 3.9 -21.0°
Enters shadow 21:21:08 43° 126° (SE) 1,145 3.9 -21.1°
